[[{"header":{"parameterUnit":"m.s-1","parameterCategory":2,"la1":30.2991,"la2":30.254,"lo1":-89.0895,"lo2":-89.0444,"dy":0.0017,"dx":0.0017,"nx":28,"ny":28,"refTime":"2025-04-27T03:00:00:Z","depth":"0","parameterNumber":2,"parameterNumberName":"U-component_of_CURRENTS"},"data":[0,0,0,0,0,0,0,0,0,0,0,0,0,0,0,0,0,0,0,0,0,0,0,0,0,0,0,0,0,0,0,0,0,0,0,0,0,0,0,0,0,0,0,0,0,0,0,0,0,0,0,0,0,0,0,0,0,0,0.2917,0.2918,0,0.301,0.3011,0.3012,0.3028,0.3028,0.3027,0.3026,0.303,0.3031,0.3032,0,0,0,0,0,0,0,0,0,0,0,0,0,0.2766,0.2768,0.2917,0.2919,0.292,0.301,0.3011,0.3012,0.3028,0.3028,0.3027,0.3026,0.303,0.3031,0.3032,0,0,0,0,0,0,0,0,0,0,0,0,0,0.284,0.2769,0.2917,0.294,0.2943,0.301,0.3011,0.3013,0.3028,0.3027,0.3027,0.3026,0.303,0.3031,0.3032,0.3056,0,0,0.3035,0.3035,0,0,0,0,0,0,0,0,0.2836,0.2846,0.2936,0.2939,0.2943,0.3009,0.296,0.3023,0.3029,0.2994,0.3026,0.3025,0.3017,0.3019,0.3037,0.3056,0.3056,0.3035,0.3036,0.3036,0.3036,0,0,0,0,0,0,0,0.2831,0.2842,0.2952,0.2937,0.2941,0.2951,0.296,0.2972,0.3006,0.2997,0.2999,0.3013,0.3018,0.3036,0.3037,0.3056,0.3035,0.3036,0.3036,0.3037,0.3118,0.312,0,0,0,0,0,0,0.2825,0.2837,0.2949,0.2955,0.2888,0.2954,0.2964,0.2987,0.3008,0.3012,0.3014,0.3013,0.3035,0.3035,0.3037,0.3089,0.3036,0.3037,0.3038,0.3117,0.3118,0.312,0,0,0,0,0,0,0.2821,0.2834,0.2945,0.2899,0.2914,0.2958,0.2982,0.2989,0.3011,0.3022,0.3023,0.3029,0.3034,0.3035,0.3059,0.3088,0.3037,0.3038,0.3115,0.3117,0.3119,0.3179,0,0,0,0,0,0,0.2816,0.2832,0.2847,0.2899,0.2917,0.2992,0.2984,0.2991,0.3022,0.3022,0.3036,0.3035,0.3033,0.3057,0.306,0.3089,0.3039,0.3113,0.3116,0.3119,0.3175,0.3183,0.319,0,0,0,0,0,0.2811,0.284,0.2847,0.2861,0.2935,0.2994,0.3004,0.3029,0.3023,0.3043,0.3051,0.3035,0.3077,0.3059,0.3062,0.3092,0.3111,0.3115,0.3118,0.3172,0.3182,0.319,0,0,0,0,0,0,0.2786,0.2846,0.2855,0.2902,0.2945,0.2997,0.3021,0.3035,0.306,0.3056,0.3054,0.3056,0.3089,0.3083,0.3063,0.3125,0.3092,0.3096,0.3132,0.3141,0.3149,0.3147,0.304,0,0,0,0,0,0.2787,0.2823,0.2877,0.2915,0.2936,0.2977,0.3003,0.3023,0.3053,0.3064,0.3072,0.3084,0.3108,0.3116,0.3132,0.3164,0.3179,0.3185,0.3193,0.3199,0.32,0.3263,0.3276,0.3132,0.3132,0.3132,0,0,0.2791,0.2827,0.2849,0.2912,0.2945,0.2982,0.299,0.3038,0.3068,0.3059,0.3095,0.311,0.3122,0.3162,0.3176,0.3159,0.325,0.3204,0.3209,0.3207,0.3268,0.3282,0.3294,0.3134,0.3134,0.3133,0,0,0.281,0.2845,0.2876,0.2912,0.2967,0.2996,0.3009,0.3062,0.3085,0.3127,0.3132,0.3165,0.319,0.3216,0.3229,0.3287,0.3288,0.329,0.3328,0.3389,0.3401,0.3412,0.3458,0.3473,0.3294,0.3294,0.3294,0,0.2803,0.2854,0.2895,0.293,0.2959,0.2999,0.3032,0.3071,0.3124,0.3152,0.314,0.3213,0.3219,0.3283,0.3303,0.3305,0.3333,0.3292,0.3399,0.341,0.3421,0.3465,0.348,0.3297,0.3297,0.3297,0.3296,0,0.2844,0.2881,0.2904,0.2956,0.2994,0.3035,0.3087,0.3128,0.3153,0.319,0.3258,0.3283,0.3326,0.3339,0.3336,0.3419,0.3414,0.3402,0.3376,0.3439,0.3481,0.3496,0.3302,0.3301,0.33,0.3299,0,0,0.2815,0.2913,0.2912,0.294,0.301,0.3042,0.3104,0.3174,0.3225,0.327,0.3338,0.3384,0.3405,0.3421,0.3436,0.3485,0.3583,0.3475,0.3477,0.3519,0.3718,0.3684,0.3696,0.3595,0.3598,0.36,0.3721,0,0.2822,0.2887,0.2934,0.2985,0.3021,0.3079,0.3136,0.3205,0.3268,0.3345,0.3393,0.3457,0.3436,0.347,0.3518,0.3572,0.3624,0.3551,0.3651,0.3653,0.3615,0.3713,0.3638,0.3737,0.3736,0.3738,0.374,0,0.2825,0.2872,0.2925,0.3009,0.3028,0.3061,0.3158,0.3221,0.3342,0.3401,0.3479,0.3521,0.3609,0.3577,0.37,0.3657,0.369,0.3721,0.3727,0.3681,0.3647,0.3673,0.3764,0.3685,0.3762,0.3761,0.3759,0,0.2768,0.2854,0.2893,0.292,0.3024,0.3054,0.3109,0.3227,0.3298,0.3441,0.3505,0.3613,0.3678,0.3741,0.3799,0.3764,0.3931,0.3889,0.3888,0.3886,0.3833,0.3821,0.3856,0.3975,0.3975,0.3975,0.3974,0,0.2746,0.2772,0.2867,0.2884,0.2931,0.3018,0.3091,0.3179,0.3319,0.3405,0.3519,0.361,0.3724,0.3822,0.3852,0.393,0.3978,0.3919,0.3927,0.3852,0.384,0.3774,0.3731,0.3979,0.3978,0.3977,0.3976,0,0.267,0.2737,0.2782,0.2879,0.2903,0.2933,0.3054,0.3124,0.3267,0.3387,0.3434,0.3637,0.3776,0.3872,0.4007,0.4001,0.3978,0.4079,0.3977,0.397,0.3856,0.3819,0.3708,0.3596,0.4098,0.4098,0.4098,0,0.264,0.2659,0.2744,0.2766,0.28,0.2865,0.2917,0.3072,0.3156,0.3389,0.344,0.3637,0.3769,0.3972,0.4032,0.4116,0.3985,0.4064,0.3971,0.3864,0.383,0.365,0.3549,0.3934,0.3933,0.3931,0.3931,0,0.2576,0.2604,0.264,0.2688,0.2726,0.2782,0.2868,0.2928,0.3118,0.3242,0.3426,0.356,0.379,0.3888,0.4019,0.4048,0.3889,0.4041,0.3973,0.3746,0.3512,0.3403,0.3829,0.3921,0.3922,0.3923,0.3923,0.3924,0.2516,0.2518,0.2568,0.2606,0.265,0.2692,0.271,0.2831,0.2953,0.3121,0.3315,0.3476,0.3715,0.3909,0.3909,0.3889,0.3812,0.381,0.3791,0.3628,0.346,0.3853,0.392,0.3921,0.3922,0.3923,0.3923,0,0.2444,0.2461,0.2491,0.253,0.2542,0.2596,0.2672,0.2692,0.2787,0.2979,0.3138,0.3379,0.3538,0.3679,0.3788,0.368,0.349,0.359,0.334,0.3264,0.3683,0.3617,0.3569,0.3569,0.3569,0.3569,0.3569,0.3569,0.241,0.2404,0.2423,0.2416,0.2437,0.2418,0.2436,0.2489,0.2597,0.2745,0.2876,0.304,0.339,0.3657,0.3636,0.3543,0.325,0.3133,0.3063,0.3409,0.3426,0.3443,0.3371,0.3272,0.3272,0.2525,0.252,0.2516]},{"header":{"parameterUnit":"m.s-1","parameterCategory":2,"la1":30.2991,"la2":30.254,"lo1":-89.0895,"lo2":-89.0444,"dy":0.0017,"dx":0.0017,"nx":28,"ny":28,"refTime":"2025-04-27T03:00:00:Z","depth":"0","parameterNumber":3,"parameterNumberName":"V-component_of_CURRENTS"},"data":[0,0,0,0,0,0,0,0,0,0,0,0,0,0,0,0,0,0,0,0,0,0,0,0,0,0,0,0,0,0,0,0,0,0,0,0,0,0,0,0,0,0,0,0,0,0,0,0,0,0,0,0,0,0,0,0,0,0,0.0198,0.0198,0,0.0101,0.01,0.0099,0.0013,0.0012,0.0011,0.0011,-0.0102,-0.0104,-0.0107,0,0,0,0,0,0,0,0,0,0,0,0,0,0.0264,0.0264,0.0199,0.0197,0.0196,0.0101,0.01,0.0098,0.0013,0.0012,0.0011,0.001,-0.0102,-0.0104,-0.0107,0,0,0,0,0,0,0,0,0,0,0,0,0,0.0207,0.0263,0.0199,0.0144,0.0138,0.0102,0.01,0.0098,0.0013,0.0012,0.0011,0.001,-0.0101,-0.0104,-0.0107,-0.0103,0,0,-0.0117,-0.0119,0,0,0,0,0,0,0,0,0.021,0.0204,0.0153,0.0148,0.0141,0.0069,0.0081,0.003,0.0014,0.0059,0.0011,0.0009,-0.0044,-0.0052,-0.007,-0.0108,-0.0113,-0.0118,-0.012,-0.0121,-0.0122,0,0,0,0,0,0,0,0.0214,0.0208,0.0158,0.0152,0.0145,0.0108,0.0099,0.0071,0.0014,0.0055,0.0049,0.0041,-0.0048,-0.0067,-0.0073,-0.0115,-0.0118,-0.0121,-0.0123,-0.0124,-0.0166,-0.0165,0,0,0,0,0,0,0.0234,0.0212,0.0161,0.0155,0.0175,0.0108,0.0098,0.0092,0.0014,0.0002,0.0042,0.0038,-0.006,-0.0069,-0.0078,-0.0067,-0.0121,-0.0124,-0.0126,-0.0167,-0.0166,-0.0165,0,0,0,0,0,0,0.0235,0.023,0.0165,0.0182,0.0172,0.0109,0.0103,0.0091,0.0075,0.0005,-0.0008,0.0039,-0.0062,-0.0073,-0.0099,-0.0073,-0.0126,-0.0129,-0.0168,-0.0167,-0.0166,-0.0053,0,0,0,0,0,0,0.0238,0.0232,0.0236,0.0184,0.0172,0.016,0.0104,0.009,0.0073,0.0066,-0.0001,-0.0014,-0.0063,-0.0094,-0.0103,-0.0078,-0.0132,-0.0169,-0.0168,-0.0166,-0.0058,-0.0048,-0.0039,0,0,0,0,0,0.0241,0.0264,0.0237,0.0231,0.018,0.0161,0.0152,0.0101,0.0074,0.008,0.0027,-0.0012,-0.009,-0.0096,-0.0106,-0.0082,-0.017,-0.0168,-0.0166,-0.0062,-0.005,-0.004,0,0,0,0,0,0,0.03,0.0256,0.0226,0.0235,0.0204,0.0148,0.015,0.0115,0.0077,0.0069,-0.0001,-0.0016,-0.0032,-0.007,-0.0075,-0.0091,-0.0135,-0.0135,-0.0052,-0.0042,-0.0032,-0.0009,-0.0134,0,0,0,0,0,0.0315,0.0318,0.0268,0.0276,0.0266,0.0209,0.0196,0.0162,0.0121,0.0103,0.0055,0.0006,-0.003,-0.0046,-0.0086,-0.0088,-0.0134,-0.008,-0.0071,-0.0063,-0.0051,-0.0101,-0.0095,-0.0159,-0.0159,-0.0159,0,0,0.0344,0.0318,0.0321,0.0289,0.0259,0.026,0.0198,0.019,0.0191,0.0099,0.009,0.0036,-0.0026,-0.0037,-0.0046,-0.0064,-0.0068,-0.006,-0.0053,-0.0046,-0.0098,-0.0092,-0.0086,-0.0157,-0.0157,-0.0158,0,0,0.0408,0.0377,0.04,0.0379,0.0343,0.0308,0.0313,0.0263,0.0243,0.0224,0.0158,0.0123,0.007,0.0032,0.0005,0.0045,-0.0021,0.0033,0.0104,0.0057,0.0062,0.0066,0.0021,0.0019,0.0043,0.0043,0.0043,0,0.0439,0.0455,0.0407,0.0418,0.0408,0.0338,0.0359,0.0335,0.0283,0.0275,0.0238,0.0156,0.0104,0.0089,0.0098,0.0068,0.0027,0.007,0.007,0.0072,0.0074,0.0027,0.0024,0.0049,0.0048,0.0048,0.0047,0,0.0516,0.0521,0.0537,0.0521,0.0508,0.0516,0.047,0.0462,0.0422,0.0386,0.0359,0.028,0.0232,0.0212,0.0165,0.0161,0.0123,0.0084,0.0046,0.0088,0.0035,0.003,0.0057,0.0055,0.0053,0.0052,0,0,0.059,0.0591,0.0592,0.0599,0.056,0.0559,0.0567,0.0552,0.0565,0.0503,0.0509,0.0436,0.0384,0.035,0.0286,0.0246,0.0222,0.0182,0.0176,0.0145,0.0117,0.01,0.0092,0.018,0.018,0.0179,0.0076,0,0.0657,0.0711,0.0684,0.0722,0.0742,0.0683,0.0698,0.0673,0.0641,0.0632,0.055,0.0524,0.0441,0.0419,0.0368,0.0261,0.0213,0.0253,0.0074,0.0069,0.0055,0.0088,0.0096,0.0005,0.0071,0.007,0.0069,0,0.0727,0.0753,0.0817,0.082,0.0823,0.0832,0.0832,0.0841,0.0808,0.0786,0.074,0.0663,0.0602,0.0519,0.0363,0.0392,0.0268,0.0175,0.0168,0.0111,0.0044,-0.0029,-0.0007,-0.019,0.0061,0.0062,0.0062,0,0.0798,0.0832,0.0889,0.0891,0.0896,0.0908,0.0906,0.0888,0.0916,0.0885,0.089,0.0788,0.075,0.0588,0.0401,0.0376,0.0224,0.016,0.0024,0.0021,-0.0028,-0.0034,-0.0196,0.0041,0.0041,0.0041,0.0041,0,0.0866,0.0902,0.0929,0.0955,0.1015,0.0987,0.1044,0.1031,0.1043,0.1086,0.0977,0.0987,0.0764,0.0645,0.0449,0.0242,0.0256,0.0047,-0.0001,0.0012,0.0011,-0.0196,-0.0308,0.0037,0.0038,0.0039,0.004,0,0.0923,0.0944,0.1007,0.1038,0.105,0.1092,0.1132,0.1179,0.1178,0.123,0.1226,0.1144,0.099,0.0756,0.0506,0.0323,-0.0003,0.0026,0.0064,0.0023,-0.0282,-0.0387,-0.0609,-0.0699,-0.0147,-0.0148,-0.0149,0,0.0963,0.101,0.1072,0.1114,0.1126,0.1185,0.1229,0.1247,0.1307,0.133,0.1368,0.1251,0.1191,0.0837,0.0488,0.0151,-0.0039,-0.0064,-0.0115,-0.0285,-0.0439,-0.0511,-0.0576,-0.0143,-0.0144,-0.0144,-0.0145,0,0.1039,0.106,0.1107,0.1197,0.1252,0.1325,0.139,0.1464,0.1497,0.1551,0.1605,0.1565,0.1225,0.0911,0.0459,0.0213,-0.0192,-0.0087,-0.0279,-0.0455,-0.0529,-0.0641,-0.0091,-0.015,-0.0149,-0.0149,-0.0148,-0.0148,0.1091,0.1134,0.1201,0.1278,0.1349,0.145,0.1529,0.1619,0.1737,0.1834,0.1793,0.1774,0.1306,0.0696,0.0352,-0.0254,-0.0273,-0.0441,-0.0556,-0.0614,-0.0693,-0.0142,-0.0243,-0.0243,-0.0243,-0.0243,-0.0243,0,0.1148,0.1194,0.1276,0.1369,0.1455,0.1483,0.1626,0.1725,0.1877,0.1967,0.202,0.1781,0.1213,0.0626,-0.0193,-0.0626,-0.0785,-0.0863,-0.0976,-0.1023,-0.0549,-0.0539,-0.0686,-0.0686,-0.0685,-0.0685,-0.0685,-0.0685,0.1179,0.1257,0.1291,0.1438,0.1509,0.1642,0.1733,0.189,0.1996,0.2122,0.2118,0.2077,0.1622,0.0167,-0.0803,-0.1035,-0.1346,-0.1425,-0.1574,-0.1263,-0.1232,-0.1203,-0.1219,-0.1506,-0.1507,-0.198,-0.1985,-0.1989]}],[{"header":{"parameterUnit":"m.s-1","parameterCategory":2,"la1":30.2991,"la2":30.254,"lo1":-89.0895,"lo2":-89.0444,"dy":0.0017,"dx":0.0017,"nx":28,"ny":28,"refTime":"2025-04-27T03:00:00:Z","depth":"2","parameterNumber":2,"parameterNumberName":"U-component_of_CURRENTS"},"data":[0,0,0,0,0,0,0,0,0,0,0,0,0,0,0,0,0,0,0,0,0,0,0,0,0,0,0,0,0,0,0,0,0,0,0,0,0,0,0,0,0,0,0,0,0,0,0,0,0,0,0,0,0,0,0,0,0,0,0.242,0.2421,0,0.2473,0.2474,0.2474,0.2522,0.2522,0.2523,0.2524,0.2553,0.2553,0.2553,0,0,0,0,0,0,0,0,0,0,0,0,0,0.2358,0.2359,0.242,0.2421,0.2422,0.2473,0.2474,0.2474,0.2522,0.2522,0.2523,0.2524,0.2553,0.2553,0.2553,0,0,0,0,0,0,0,0,0,0,0,0,0,0.2394,0.2359,0.242,0.2453,0.2456,0.2473,0.2474,0.2474,0.2521,0.2522,0.2524,0.2525,0.2553,0.2553,0.2553,0.2532,0,0,0.2554,0.2554,0,0,0,0,0,0,0,0,0.2392,0.2396,0.2447,0.2451,0.2455,0.2494,0.2463,0.2493,0.2521,0.2495,0.2524,0.2525,0.2531,0.2533,0.2539,0.2534,0.2535,0.2554,0.2554,0.2554,0.2554,0,0,0,0,0,0,0,0.2389,0.2394,0.2439,0.2448,0.2453,0.2465,0.2471,0.2469,0.2504,0.2497,0.2501,0.251,0.2533,0.2538,0.254,0.2535,0.2554,0.2554,0.2554,0.2554,0.2612,0.2613,0,0,0,0,0,0,0.2385,0.2391,0.2437,0.2441,0.2427,0.2465,0.2472,0.2478,0.2505,0.2511,0.2509,0.2512,0.2538,0.2539,0.2541,0.2607,0.2554,0.2554,0.2554,0.261,0.2612,0.2614,0,0,0,0,0,0,0.2384,0.2389,0.2435,0.2419,0.2426,0.2465,0.2472,0.2479,0.2505,0.2515,0.252,0.253,0.2538,0.2541,0.2569,0.2605,0.2554,0.2554,0.2609,0.2611,0.2613,0.2681,0,0,0,0,0,0,0.2382,0.2388,0.2391,0.2419,0.2427,0.2465,0.2472,0.2479,0.2508,0.2513,0.2534,0.2537,0.254,0.2569,0.2569,0.2604,0.2554,0.2607,0.261,0.2612,0.2677,0.2685,0.2692,0,0,0,0,0,0.2379,0.2387,0.2391,0.2397,0.243,0.2466,0.2471,0.2501,0.2508,0.2526,0.2546,0.2537,0.2586,0.257,0.257,0.2606,0.2605,0.2609,0.2612,0.2673,0.2684,0.2692,0,0,0,0,0,0,0.2348,0.2393,0.2398,0.2414,0.2444,0.2475,0.2501,0.2508,0.2536,0.2549,0.2549,0.2553,0.2598,0.2586,0.2567,0.2631,0.2597,0.26,0.2644,0.2653,0.2661,0.266,0.2554,0,0,0,0,0,0.2344,0.2375,0.2403,0.2419,0.2442,0.2469,0.2487,0.2508,0.2535,0.2549,0.2557,0.2576,0.2606,0.2617,0.2635,0.2656,0.2661,0.2682,0.2689,0.2696,0.2696,0.2745,0.2758,0.2624,0.2624,0.2624,0,0,0.2347,0.2365,0.2389,0.2417,0.245,0.2478,0.2485,0.2528,0.2551,0.2546,0.2582,0.2604,0.262,0.2662,0.2679,0.2658,0.2738,0.27,0.2706,0.2702,0.275,0.2763,0.2775,0.2627,0.2626,0.2626,0,0,0.2359,0.238,0.2411,0.2436,0.2481,0.25,0.2515,0.2552,0.2577,0.2607,0.2625,0.2665,0.2685,0.2715,0.273,0.2784,0.2782,0.2794,0.2827,0.2876,0.2887,0.2897,0.2925,0.2937,0.2792,0.2792,0.2792,0,0.2355,0.2385,0.2424,0.2447,0.2474,0.2511,0.2541,0.2569,0.2605,0.2631,0.2631,0.2703,0.2713,0.2779,0.2805,0.2803,0.2824,0.2792,0.2887,0.2897,0.2906,0.2932,0.2944,0.2796,0.2796,0.2795,0.2795,0,0.2376,0.2409,0.2435,0.248,0.2509,0.2551,0.2592,0.2625,0.2653,0.2678,0.2751,0.2776,0.282,0.2837,0.2837,0.2915,0.2908,0.2897,0.2863,0.2924,0.2947,0.2959,0.2801,0.28,0.2799,0.2798,0,0,0.2347,0.2436,0.2441,0.2473,0.2534,0.2558,0.2615,0.2673,0.2719,0.2758,0.2819,0.2876,0.29,0.2919,0.2937,0.2973,0.3056,0.2965,0.2966,0.2993,0.3162,0.3134,0.3143,0.3072,0.3074,0.3076,0.3154,0,0.2355,0.2402,0.2445,0.2503,0.2543,0.2598,0.2649,0.2705,0.2758,0.2822,0.2876,0.2943,0.2931,0.2972,0.301,0.3054,0.309,0.3035,0.3099,0.31,0.3069,0.3157,0.2938,0.2988,0.3165,0.3167,0.3169,0,0.2359,0.2388,0.2443,0.2533,0.2557,0.259,0.2682,0.2731,0.2834,0.2883,0.2959,0.3007,0.3088,0.3063,0.3161,0.3133,0.3152,0.317,0.3174,0.3129,0.3094,0.2956,0.3003,0.3188,0.3186,0.3185,0.3184,0,0.2313,0.2394,0.2436,0.2462,0.2557,0.2596,0.2649,0.2749,0.2808,0.2928,0.2989,0.3087,0.3147,0.3199,0.3243,0.3219,0.3337,0.3305,0.3292,0.3289,0.3104,0.3081,0.3367,0.3367,0.3367,0.3367,0.3366,0,0.2305,0.2333,0.242,0.2434,0.2493,0.2573,0.2651,0.272,0.2839,0.2914,0.3017,0.3092,0.3187,0.3265,0.3284,0.3335,0.3375,0.3318,0.332,0.3122,0.3101,0.3265,0.3252,0.3369,0.3369,0.3368,0.3368,0,0.2259,0.2312,0.2358,0.2447,0.2476,0.2513,0.2633,0.2688,0.2816,0.2918,0.2966,0.3119,0.3231,0.331,0.3401,0.3388,0.3436,0.3433,0.319,0.3163,0.3341,0.333,0.3439,0.3439,0.3439,0.3439,0.3439,0,0.2237,0.2261,0.2344,0.2359,0.2397,0.2468,0.2518,0.2652,0.2716,0.292,0.2959,0.3126,0.3213,0.3353,0.3383,0.3439,0.3457,0.3243,0.3155,0.3363,0.3355,0.3344,0.3335,0.2932,0.2928,0.2924,0.2922,0,0.2178,0.2216,0.2244,0.2296,0.2334,0.2386,0.247,0.2514,0.2678,0.2773,0.2905,0.3004,0.3184,0.3163,0.326,0.325,0.3223,0.3177,0.3473,0.2956,0.2895,0.2883,0.2888,0.2891,0.2894,0.2896,0.2898,0.2899,0.2123,0.2131,0.2178,0.2219,0.2255,0.2283,0.2294,0.2394,0.2471,0.2598,0.2754,0.2836,0.2947,0.2996,0.2941,0.2917,0.3125,0.2988,0.2995,0.3006,0.2942,0.2885,0.2866,0.2869,0.2871,0.2873,0.2875,0,0.2058,0.2074,0.2098,0.2125,0.2123,0.2194,0.2242,0.2235,0.2274,0.2433,0.254,0.2434,0.2484,0.2577,0.2517,0.2558,0.2486,0.2443,0.2322,0.2358,0.2389,0.2287,0.2041,0.2038,0.2034,0.2031,0,0,0.2011,0.1998,0.2012,0.1974,0.2007,0.1975,0.1978,0.1986,0.2061,0.2077,0.213,0.2383,0.2528,0.2234,0.2238,0.212,0.22,0.2045,0.2733,0.2628,0.2653,0.2748,0.264,0,0,0,0,0]},{"header":{"parameterUnit":"m.s-1","parameterCategory":2,"la1":30.2991,"la2":30.254,"lo1":-89.0895,"lo2":-89.0444,"dy":0.0017,"dx":0.0017,"nx":28,"ny":28,"refTime":"2025-04-27T03:00:00:Z","depth":"2","parameterNumber":3,"parameterNumberName":"V-component_of_CURRENTS"},"data":[0,0,0,0,0,0,0,0,0,0,0,0,0,0,0,0,0,0,0,0,0,0,0,0,0,0,0,0,0,0,0,0,0,0,0,0,0,0,0,0,0,0,0,0,0,0,0,0,0,0,0,0,0,0,0,0,0,0,-0.0057,-0.0058,0,-0.0137,-0.0138,-0.0139,-0.0195,-0.0195,-0.0195,-0.0195,-0.0294,-0.0296,-0.0298,0,0,0,0,0,0,0,0,0,0,0,0,0,0.0001,0.0001,-0.0057,-0.0058,-0.0059,-0.0137,-0.0138,-0.014,-0.0194,-0.0195,-0.0195,-0.0196,-0.0293,-0.0296,-0.0299,0,0,0,0,0,0,0,0,0,0,0,0,0,-0.0047,0.0001,-0.0057,-0.0095,-0.0099,-0.0137,-0.0138,-0.014,-0.0194,-0.0195,-0.0195,-0.0196,-0.0292,-0.0296,-0.0299,-0.0311,0,0,-0.031,-0.0311,0,0,0,0,0,0,0,0,-0.0044,-0.0049,-0.0089,-0.0092,-0.0097,-0.0156,-0.0154,-0.0198,-0.0194,-0.0159,-0.0195,-0.0196,-0.0248,-0.0255,-0.0271,-0.0316,-0.032,-0.031,-0.0312,-0.0314,-0.0315,0,0,0,0,0,0,0,-0.004,-0.0046,-0.009,-0.0089,-0.0095,-0.0124,-0.0131,-0.0163,-0.0201,-0.0162,-0.0166,-0.0174,-0.0251,-0.0267,-0.0273,-0.0321,-0.031,-0.0313,-0.0315,-0.0317,-0.0384,-0.0384,0,0,0,0,0,0,-0.0026,-0.0043,-0.0087,-0.0092,-0.007,-0.0125,-0.0133,-0.0137,-0.0201,-0.021,-0.0173,-0.0176,-0.0261,-0.0269,-0.0277,-0.0283,-0.0314,-0.0317,-0.0319,-0.0384,-0.0384,-0.0384,0,0,0,0,0,0,-0.0024,-0.0029,-0.0084,-0.0069,-0.0078,-0.0125,-0.013,-0.0138,-0.0151,-0.0208,-0.0219,-0.0176,-0.0262,-0.0272,-0.0301,-0.0287,-0.0318,-0.0322,-0.0385,-0.0384,-0.0384,-0.0302,0,0,0,0,0,0,-0.0022,-0.0028,-0.0023,-0.0067,-0.0078,-0.0098,-0.0129,-0.014,-0.0155,-0.0159,-0.0215,-0.0225,-0.0263,-0.0296,-0.0305,-0.0293,-0.0324,-0.0385,-0.0384,-0.0384,-0.0305,-0.0299,-0.0293,0,0,0,0,0,-0.002,-0.0008,-0.0022,-0.0028,-0.0071,-0.0097,-0.0105,-0.0141,-0.0154,-0.0155,-0.0194,-0.0223,-0.0299,-0.0298,-0.0309,-0.0298,-0.0385,-0.0385,-0.0384,-0.0308,-0.03,-0.0294,0,0,0,0,0,0,0.0021,-0.0014,-0.003,-0.003,-0.0058,-0.0106,-0.0106,-0.0133,-0.0164,-0.0166,-0.0221,-0.0233,-0.0256,-0.0288,-0.0286,-0.0316,-0.0346,-0.0347,-0.0284,-0.0278,-0.0272,-0.0251,-0.0327,0,0,0,0,0,0.0033,0.0032,-0.0009,-0.0007,-0.0015,-0.0059,-0.0072,-0.0097,-0.0132,-0.0147,-0.0187,-0.0227,-0.0262,-0.0277,-0.0315,-0.0328,-0.0362,-0.0328,-0.0322,-0.0317,-0.0308,-0.0347,-0.0344,-0.0381,-0.0381,-0.0381,0,0,0.0053,0.003,0.0033,0.0002,-0.002,-0.0026,-0.0068,-0.008,-0.0086,-0.0152,-0.0167,-0.021,-0.0262,-0.0281,-0.0293,-0.0305,-0.0325,-0.0316,-0.0311,-0.0305,-0.0346,-0.0343,-0.0339,-0.0381,-0.0381,-0.0381,0,0,0.009,0.0071,0.0083,0.0063,0.0034,0.0005,0.0006,-0.0036,-0.0054,-0.0077,-0.0125,-0.0157,-0.0208,-0.0242,-0.0265,-0.0249,-0.0296,-0.0261,-0.021,-0.0247,-0.0244,-0.0242,-0.0278,-0.0279,-0.0253,-0.0253,-0.0253,0,0.0115,0.0118,0.0083,0.0085,0.0077,0.0026,0.0036,0.0011,-0.0038,-0.0045,-0.007,-0.0143,-0.0188,-0.021,-0.0207,-0.0234,-0.0264,-0.0229,-0.0238,-0.0237,-0.0236,-0.0273,-0.0276,-0.0249,-0.0249,-0.0249,-0.025,0,0.0149,0.0157,0.0165,0.015,0.0136,0.0138,0.0099,0.0087,0.0059,0.0028,-0.0,-0.0065,-0.0104,-0.0126,-0.0163,-0.0175,-0.0201,-0.0229,-0.0251,-0.0227,-0.0268,-0.0273,-0.0243,-0.0244,-0.0246,-0.0247,0,0,0.0198,0.0193,0.0195,0.0208,0.0172,0.0169,0.0165,0.0146,0.0158,0.01,0.0103,0.0034,0.0001,-0.0028,-0.0079,-0.0114,-0.0139,-0.016,-0.0164,-0.0186,-0.022,-0.0231,-0.0238,-0.0167,-0.0168,-0.0168,-0.025,0,0.0239,0.0266,0.0244,0.0276,0.0293,0.0252,0.0257,0.0233,0.0205,0.0194,0.0126,0.0106,0.0039,0.0028,-0.0019,-0.0107,-0.0147,-0.0113,-0.0248,-0.0252,-0.0258,-0.0242,-0.0209,-0.0279,-0.0255,-0.0256,-0.0256,0,0.0283,0.0294,0.0333,0.0354,0.0359,0.0365,0.0371,0.0369,0.0336,0.0314,0.0274,0.0221,0.0164,0.0103,-0.003,-0.0005,-0.0102,-0.0178,-0.0183,-0.0223,-0.0271,-0.0301,-0.0288,-0.0264,-0.0264,-0.0263,-0.0262,0,0.0336,0.0363,0.04,0.0402,0.0409,0.0425,0.0427,0.0409,0.0428,0.0393,0.0401,0.0314,0.0282,0.0153,0.0,-0.0014,-0.0151,-0.0193,-0.0298,-0.03,-0.0313,-0.0315,-0.0289,-0.0289,-0.0289,-0.0289,-0.0289,0,0.0387,0.0417,0.0435,0.045,0.051,0.049,0.0545,0.0531,0.0534,0.0568,0.0474,0.0479,0.0293,0.0194,0.0037,-0.0133,-0.0124,-0.0283,-0.0319,-0.0284,-0.0283,-0.0305,-0.0306,-0.0292,-0.0291,-0.0291,-0.029,0,0.0441,0.0443,0.0492,0.0518,0.0537,0.0577,0.0626,0.0667,0.0655,0.0696,0.0694,0.0605,0.0477,0.0286,0.0077,-0.0071,-0.0242,-0.031,-0.0254,-0.0281,-0.0379,-0.0375,-0.0434,-0.0435,-0.0436,-0.0437,-0.0437,0,0.0465,0.05,0.0554,0.0589,0.0603,0.0665,0.0714,0.0724,0.0772,0.0778,0.0807,0.0706,0.0648,0.0341,0.0066,-0.02,-0.0243,-0.0352,-0.0379,-0.0363,-0.0393,-0.0387,-0.0382,-0.0369,-0.0369,-0.0369,-0.0369,0,0.0513,0.0536,0.0572,0.0659,0.0714,0.0791,0.0859,0.0917,0.0939,0.0973,0.0996,0.0955,0.0678,0.0419,0.0056,-0.0128,-0.0306,-0.0361,-0.0359,-0.0331,-0.0307,-0.0334,-0.033,-0.0369,-0.0369,-0.0369,-0.0369,-0.0369,0.0545,0.059,0.0646,0.073,0.0801,0.0899,0.0975,0.1053,0.1136,0.1205,0.1149,0.1109,0.0802,0.0359,0.003,-0.0308,-0.0304,-0.0423,-0.0421,-0.042,-0.0391,-0.0369,-0.0437,-0.0438,-0.0438,-0.0438,-0.0439,0,0.0593,0.0643,0.0716,0.0806,0.0897,0.0937,0.1065,0.1142,0.1257,0.1324,0.135,0.1077,0.0778,0.0433,-0.0066,-0.0377,-0.0401,-0.0468,-0.0431,-0.0428,-0.0427,-0.0397,-0.0447,-0.0447,-0.0448,-0.0449,0,0,0.0608,0.0682,0.0725,0.0864,0.095,0.1087,0.1171,0.1283,0.1363,0.1428,0.1428,0.1367,0.0922,0.0565,0.0135,-0.0151,-0.0215,-0.0207,-0.0167,-0.007,-0.0064,-0.0369,-0.0316,0,0,0,0,0]}],[{"header":{"parameterUnit":"m.s-1","parameterCategory":2,"la1":30.2991,"la2":30.254,"lo1":-89.0895,"lo2":-89.0444,"dy":0.0017,"dx":0.0017,"nx":28,"ny":28,"refTime":"2025-04-27T03:00:00:Z","depth":"4","parameterNumber":2,"parameterNumberName":"U-component_of_CURRENTS"},"data":[0,0,0,0,0,0,0,0,0,0,0,0,0,0,0,0,0,0,0,0,0,0,0,0,0,0,0,0,0,0,0,0,0,0,0,0,0,0,0,0,0,0,0,0,0,0,0,0,0,0,0,0,0,0,0,0,0,0,0.1417,0.1418,0,0.1503,0.1504,0.1505,0.1549,0.1549,0.1549,0.1549,0.163,0.1632,0.1634,0,0,0,0,0,0,0,0,0,0,0,0,0,0.1276,0.1278,0.1417,0.1418,0.1419,0.1503,0.1504,0.1505,0.1549,0.1549,0.1549,0.1549,0.1629,0.1631,0.1634,0,0,0,0,0,0,0,0,0,0,0,0,0,0.1348,0.1279,0.1417,0.145,0.1454,0.1502,0.1504,0.1505,0.1549,0.1549,0.1549,0.1549,0.1628,0.1631,0.1634,0.1655,0,0,0.1644,0.1646,0,0,0,0,0,0,0,0,0.1344,0.1353,0.1444,0.1448,0.1452,0.1514,0.1484,0.1555,0.1549,0.1514,0.1549,0.1549,0.159,0.1596,0.1614,0.1659,0.1663,0.1645,0.1647,0.1648,0.1649,0,0,0,0,0,0,0,0.1339,0.1349,0.1452,0.1445,0.145,0.1456,0.1466,0.1498,0.1551,0.1517,0.152,0.1528,0.1592,0.1611,0.1616,0.1664,0.1645,0.1647,0.1649,0.1651,0.1785,0.1786,0,0,0,0,0,0,0.1328,0.1345,0.1449,0.1454,0.1396,0.1458,0.147,0.1495,0.1551,0.156,0.1528,0.153,0.1605,0.1612,0.1619,0.1704,0.1648,0.1651,0.1653,0.1783,0.1785,0.1787,0,0,0,0,0,0,0.1325,0.1337,0.1445,0.1399,0.1414,0.1461,0.1489,0.1497,0.1544,0.156,0.1568,0.157,0.1605,0.1614,0.1668,0.1705,0.1653,0.1656,0.1781,0.1784,0.1786,0.1836,0,0,0,0,0,0,0.1321,0.1336,0.1369,0.14,0.1416,0.1488,0.1489,0.1498,0.1547,0.1551,0.1598,0.1604,0.1606,0.1663,0.1671,0.1708,0.1658,0.1779,0.1783,0.1785,0.1833,0.184,0.1847,0,0,0,0,0,0.1316,0.1351,0.1371,0.1384,0.1455,0.1489,0.1499,0.1531,0.1549,0.1574,0.1606,0.1604,0.1688,0.1667,0.1677,0.1715,0.1778,0.1782,0.1785,0.183,0.1839,0.1847,0,0,0,0,0,0,0.1311,0.136,0.1382,0.1434,0.1466,0.1496,0.153,0.1551,0.1599,0.1613,0.1628,0.1636,0.1694,0.1701,0.1678,0.1762,0.1732,0.1738,0.1763,0.1772,0.1778,0.1776,0.1661,0,0,0,0,0,0.1325,0.1364,0.1405,0.1447,0.1471,0.1509,0.1536,0.1556,0.1592,0.1615,0.1648,0.1682,0.1713,0.1739,0.1763,0.1817,0.1826,0.1847,0.1854,0.186,0.1865,0.191,0.1921,0.1799,0.1799,0.1799,0,0,0.1332,0.1366,0.1388,0.1449,0.1483,0.1521,0.1527,0.1574,0.1608,0.1616,0.1687,0.171,0.1731,0.1784,0.1811,0.1798,0.1901,0.1864,0.1869,0.1871,0.1915,0.1927,0.1937,0.1801,0.1801,0.18,0,0,0.1348,0.1403,0.1436,0.147,0.1525,0.1549,0.1569,0.1621,0.1653,0.1713,0.1725,0.1771,0.1829,0.1847,0.1862,0.1926,0.1933,0.1942,0.1983,0.2028,0.2038,0.2047,0.2078,0.209,0.195,0.195,0.195,0,0.1361,0.1409,0.1449,0.149,0.1523,0.1565,0.1604,0.1643,0.1704,0.1733,0.1742,0.1839,0.1855,0.1914,0.1934,0.1942,0.1967,0.1948,0.2037,0.2046,0.2054,0.2084,0.2096,0.1953,0.1952,0.1952,0.1952,0,0.1389,0.1442,0.1467,0.1534,0.1574,0.1615,0.1665,0.1715,0.1761,0.1794,0.1873,0.1906,0.1962,0.1977,0.1977,0.2051,0.2049,0.2036,0.2013,0.207,0.2097,0.2109,0.1957,0.1956,0.1955,0.1954,0,0,0.1385,0.147,0.1484,0.152,0.1602,0.1632,0.17,0.1763,0.1813,0.188,0.1946,0.2004,0.2034,0.2054,0.2071,0.2111,0.2189,0.2108,0.2109,0.2134,0.2292,0.2174,0.2175,0.22,0.2202,0.2204,0.2288,0,0.1401,0.1467,0.1512,0.1583,0.1623,0.1686,0.1744,0.1807,0.1866,0.194,0.199,0.2059,0.2061,0.2102,0.2145,0.2181,0.2222,0.2167,0.2237,0.2238,0.2123,0.2185,0.2211,0.2297,0.2299,0.2301,0.2303,0,0.1413,0.1457,0.1523,0.161,0.1637,0.169,0.179,0.1847,0.1945,0.1995,0.2075,0.2117,0.2202,0.2186,0.2291,0.2263,0.2285,0.2303,0.2306,0.2184,0.2141,0.2228,0.2323,0.2322,0.232,0.2319,0.2318,0,0.1368,0.1466,0.1516,0.1549,0.1653,0.1704,0.1769,0.1868,0.1925,0.204,0.2099,0.2194,0.2265,0.2314,0.2367,0.2342,0.2467,0.243,0.2343,0.2335,0.2392,0.2381,0.2494,0.2494,0.2494,0.2494,0.2493,0,0.1352,0.1399,0.1508,0.1533,0.1605,0.1695,0.178,0.1852,0.1969,0.2036,0.2135,0.2201,0.2306,0.2384,0.2403,0.2419,0.2504,0.2361,0.2353,0.2412,0.2402,0.2401,0.2389,0.2497,0.2496,0.2495,0.2495,0,0.129,0.1361,0.142,0.1538,0.1582,0.1635,0.1776,0.1833,0.1961,0.2056,0.21,0.2242,0.2345,0.2429,0.2517,0.2462,0.2483,0.2462,0.2537,0.253,0.2308,0.2298,0.2361,0.2358,0.2355,0.2353,0.2351,0,0.1256,0.1284,0.1403,0.1442,0.1502,0.1601,0.1666,0.1807,0.1866,0.2058,0.209,0.2245,0.2323,0.2363,0.2452,0.2493,0.2464,0.2451,0.2356,0.2311,0.2298,0.2292,0.2286,0.2346,0.2345,0.2345,0.2344,0,0.1187,0.1243,0.129,0.1371,0.1445,0.1515,0.1623,0.1657,0.182,0.1952,0.2034,0.2098,0.2216,0.2284,0.2348,0.2363,0.2443,0.242,0.2425,0.2335,0.2293,0.2282,0.2279,0.2334,0.2335,0.2336,0.2337,0,0.1135,0.115,0.1223,0.1286,0.1368,0.1412,0.148,0.1568,0.1648,0.1856,0.1878,0.2049,0.2188,0.2219,0.2271,0.2292,0.2247,0.2156,0.2173,0.2185,0.209,0.2009,0.1967,0,0,0,0,0,0.1069,0.1083,0.1137,0.1191,0.1269,0.1324,0.1445,0.152,0.1675,0.1688,0.1781,0.1876,0.197,0.2057,0.2045,0.22,0.2257,0.2176,0.216,0.2279,0.229,0.2196,0,0,0,0,0,0,0.1025,0.1067,0.1098,0.1104,0.1132,0.1207,0.1282,0.139,0.1407,0.1573,0.1636,0.1761,0.1883,0.196,0.2007,0.2035,0.1987,0.2283,0.2278,0.2272,0.2283,0.2292,0.2199,0,0,0,0,0]},{"header":{"parameterUnit":"m.s-1","parameterCategory":2,"la1":30.2991,"la2":30.254,"lo1":-89.0895,"lo2":-89.0444,"dy":0.0017,"dx":0.0017,"nx":28,"ny":28,"refTime":"2025-04-27T03:00:00:Z","depth":"4","parameterNumber":3,"parameterNumberName":"V-component_of_CURRENTS"},"data":[0,0,0,0,0,0,0,0,0,0,0,0,0,0,0,0,0,0,0,0,0,0,0,0,0,0,0,0,0,0,0,0,0,0,0,0,0,0,0,0,0,0,0,0,0,0,0,0,0,0,0,0,0,0,0,0,0,0,-0.0041,-0.0042,0,-0.009,-0.0091,-0.0092,-0.0122,-0.0122,-0.0122,-0.0122,-0.0198,-0.02,-0.0202,0,0,0,0,0,0,0,0,0,0,0,0,0,-0.0004,-0.0005,-0.0041,-0.0042,-0.0042,-0.009,-0.0091,-0.0092,-0.0122,-0.0122,-0.0122,-0.0122,-0.0197,-0.02,-0.0202,0,0,0,0,0,0,0,0,0,0,0,0,0,-0.0034,-0.0005,-0.0041,-0.0062,-0.0065,-0.009,-0.0091,-0.0092,-0.0122,-0.0122,-0.0122,-0.0122,-0.0197,-0.0199,-0.0202,-0.0218,0,0,-0.0211,-0.0212,0,0,0,0,0,0,0,0,-0.0032,-0.0035,-0.0059,-0.0061,-0.0064,-0.0099,-0.0106,-0.0135,-0.0122,-0.0101,-0.0122,-0.0122,-0.0167,-0.0172,-0.0182,-0.0221,-0.0224,-0.0211,-0.0213,-0.0214,-0.0215,0,0,0,0,0,0,0,-0.003,-0.0034,-0.0061,-0.0059,-0.0062,-0.008,-0.0084,-0.0112,-0.0134,-0.0103,-0.0105,-0.0109,-0.0169,-0.0179,-0.0184,-0.0225,-0.0211,-0.0214,-0.0216,-0.0217,-0.0294,-0.0294,0,0,0,0,0,0,-0.0021,-0.0031,-0.006,-0.0063,-0.0047,-0.0081,-0.0085,-0.0088,-0.0133,-0.0139,-0.0109,-0.011,-0.0174,-0.0181,-0.0187,-0.0212,-0.0214,-0.0217,-0.0219,-0.0293,-0.0294,-0.0294,0,0,0,0,0,0,-0.002,-0.0023,-0.0058,-0.0048,-0.0053,-0.0081,-0.0084,-0.0089,-0.0101,-0.0137,-0.0144,-0.0115,-0.0174,-0.0183,-0.0213,-0.0215,-0.0219,-0.0221,-0.0293,-0.0293,-0.0294,-0.0259,0,0,0,0,0,0,-0.0019,-0.0022,-0.0022,-0.0047,-0.0054,-0.007,-0.0084,-0.009,-0.0103,-0.0105,-0.0145,-0.0152,-0.0175,-0.0209,-0.0216,-0.0219,-0.0223,-0.0293,-0.0293,-0.0294,-0.026,-0.0258,-0.0257,0,0,0,0,0,-0.0017,-0.0015,-0.0022,-0.0025,-0.0052,-0.007,-0.0075,-0.0095,-0.0103,-0.0106,-0.0136,-0.0151,-0.0217,-0.0211,-0.022,-0.0223,-0.0292,-0.0293,-0.0294,-0.026,-0.0258,-0.0257,0,0,0,0,0,0,0.0002,-0.0018,-0.0026,-0.003,-0.0047,-0.0074,-0.008,-0.0093,-0.0119,-0.0122,-0.0156,-0.0165,-0.0193,-0.0214,-0.0206,-0.0248,-0.0257,-0.0259,-0.0229,-0.0227,-0.0226,-0.0207,-0.0226,0,0,0,0,0,0.0007,0.0002,-0.0019,-0.0023,-0.003,-0.0054,-0.0064,-0.0077,-0.0102,-0.0113,-0.0142,-0.0173,-0.0202,-0.0218,-0.0247,-0.027,-0.0288,-0.0278,-0.0277,-0.0275,-0.0266,-0.0299,-0.0299,-0.0296,-0.0296,-0.0296,0,0,0.0013,0.0001,-0.0002,-0.0019,-0.0034,-0.004,-0.0061,-0.0072,-0.0078,-0.0118,-0.0138,-0.017,-0.0208,-0.0233,-0.0247,-0.0251,-0.0286,-0.0276,-0.0274,-0.0266,-0.0299,-0.03,-0.03,-0.0297,-0.0296,-0.0296,0,0,0.0024,0.0013,0.0013,0.0004,-0.0014,-0.003,-0.0031,-0.0057,-0.007,-0.0093,-0.0124,-0.0154,-0.0198,-0.0224,-0.0244,-0.0252,-0.0278,-0.0264,-0.0241,-0.0273,-0.0273,-0.0274,-0.0297,-0.03,-0.0263,-0.0262,-0.0262,0,0.0034,0.0032,0.001,0.001,0.0008,-0.0022,-0.0018,-0.0037,-0.007,-0.0078,-0.0094,-0.0158,-0.0192,-0.0221,-0.0226,-0.0247,-0.0267,-0.0243,-0.027,-0.0271,-0.0272,-0.0296,-0.0299,-0.0261,-0.0261,-0.0261,-0.0261,0,0.0042,0.0045,0.0046,0.0037,0.003,0.0029,0.0006,-0.0006,-0.0026,-0.0047,-0.0079,-0.0128,-0.0161,-0.0184,-0.0209,-0.0234,-0.0247,-0.0263,-0.027,-0.027,-0.0295,-0.0299,-0.0259,-0.0259,-0.026,-0.026,0,0,0.0063,0.0054,0.0058,0.0066,0.0048,0.0047,0.0037,0.0023,0.0025,-0.002,-0.0026,-0.0088,-0.0112,-0.0135,-0.0174,-0.0207,-0.0238,-0.0236,-0.0238,-0.0251,-0.0303,-0.0292,-0.0296,-0.0261,-0.0261,-0.0262,-0.0318,0,0.0081,0.0092,0.0082,0.0101,0.0107,0.0088,0.0086,0.0069,0.0046,0.0031,-0.0024,-0.0047,-0.0094,-0.0107,-0.0149,-0.0213,-0.0247,-0.0221,-0.0309,-0.0311,-0.0295,-0.03,-0.0263,-0.0321,-0.0322,-0.0323,-0.0323,0,0.0098,0.0105,0.0123,0.0142,0.0144,0.015,0.0153,0.0148,0.0116,0.0099,0.0062,0.0022,-0.0031,-0.007,-0.0175,-0.0156,-0.0223,-0.0278,-0.0281,-0.0283,-0.0307,-0.0324,-0.0331,-0.0331,-0.033,-0.0329,-0.0329,0,0.0125,0.0143,0.0161,0.0165,0.017,0.0182,0.0185,0.0168,0.0178,0.0144,0.0149,0.0073,0.0048,-0.005,-0.016,-0.0169,-0.0274,-0.03,-0.0354,-0.0354,-0.0362,-0.0361,-0.0373,-0.0373,-0.0373,-0.0373,-0.0372,0,0.015,0.017,0.0178,0.019,0.0227,0.0217,0.0251,0.0242,0.024,0.0261,0.019,0.0191,0.0051,-0.0024,-0.0138,-0.0251,-0.0258,-0.0346,-0.0367,-0.0347,-0.0344,-0.0365,-0.0364,-0.0375,-0.0374,-0.0374,-0.0374,0,0.0171,0.0174,0.0203,0.0223,0.0239,0.0263,0.0307,0.0334,0.032,0.0347,0.0344,0.028,0.0185,0.0044,-0.0111,-0.0205,-0.0327,-0.0368,-0.0324,-0.0343,-0.0393,-0.0389,-0.0431,-0.0431,-0.0431,-0.0432,-0.0432,0,0.0178,0.0192,0.0234,0.0266,0.0279,0.032,0.0359,0.0371,0.0404,0.0407,0.0428,0.0354,0.0293,0.01,-0.0069,-0.028,-0.0317,-0.0384,-0.0403,-0.0382,-0.0399,-0.0395,-0.0391,-0.0432,-0.0432,-0.0432,-0.0432,0,0.0193,0.0207,0.0235,0.0301,0.0352,0.0413,0.0467,0.0504,0.0522,0.0513,0.0516,0.0412,0.0307,0.0131,-0.0033,-0.019,-0.0344,-0.0385,-0.0387,-0.0405,-0.0383,-0.0399,-0.0395,-0.0432,-0.0432,-0.0432,-0.0432,0,0.0206,0.0234,0.0277,0.034,0.0411,0.049,0.0515,0.0565,0.0597,0.0598,0.0599,0.0475,0.0396,0.0178,0.0026,-0.0126,-0.0175,-0.0236,-0.0246,-0.0249,-0.0188,-0.0133,-0.0117,0,0,0,0,0,0.0217,0.0259,0.0317,0.0393,0.0467,0.0513,0.0585,0.0604,0.0627,0.0648,0.0626,0.053,0.0319,0.0227,0.0081,-0.0001,-0.022,-0.0181,-0.03,-0.0433,-0.0433,-0.0393,0,0,0,0,0,0,0.0227,0.028,0.0318,0.0427,0.0492,0.0581,0.0635,0.0652,0.066,0.0657,0.0557,0.0488,0.0287,0.0412,0.0081,0.0031,-0.0067,-0.0286,-0.0289,-0.0433,-0.0433,-0.0433,-0.0392,0,0,0,0,0]}]]